星链-1941 (STARLINK-1941 )

导读 | 星芒AI

STARLINK-1941 是 SpaceX Starlink 项目中的第 1,941 颗卫星,属于其低轨宽带互联网星座的一部分。该卫星于 2023 年发射,运行在约 550 公里的高度,旨在为全球用户提供高速、低延迟的互联网服务。Starlink 卫星采用先进推进系统和激光通信技术,以提高网络效率并减少空间碎片风险。STARLINK-1941 的部署有助于扩大 Starlink 在偏远和网络基础设施薄弱地区的覆盖范围。

基本信息
目录编号:
46793
目录名称:
STARLINK-1941
国际标识:
2020-074BG
轨道中心:
EARTH
卫星名称:
星链-1941
卫星全名:
星链-1941 (STARLINK-1941 )
卫星状态:
已陨落 最后检测时间 2025-03-19
发射日期:
2020-10-24 UTC
国别 :
美国 (US)
星等 :
--
轨道信息
数据来源 国际轨道数据
星历时间: 2025-03-20T06:28:00+0800
轨道信息已过期271天
半长轴: 6525.057km
偏心率: 0.0004773
轨道倾角: 53.019°
近地点辐角 172.678°
升交点赤经 63.687°
平近点角 287.084°
近地点: 143.807km
远地点: 150.037km
周期: 87.425分钟
每日圈数: 16.471242
详细信息
固有亮度:
5
最大亮度:
2.5
卫星平台:
Starlink V1.0
覆盖范围:
全球
运营商:
太空探索技术公司
运营商所在国:
美国
制造商(研发单位):
太空探索技术公司
制造商所在国:
美国
使用方式:
暂无
卫星简介
星链(Starlink)计划是由太空探索技术公司(SpaceX)提出的一个巨型低轨卫星互联网星座项目,计划在2019年至2024年间在太空搭建由约1.2万颗卫星组成的“星链”网络,其中1584颗将部署在地球上空550千米处的近地轨道,并从2020年开始工作。该卫星仍在工作。